NOAA NWS Hourly Roundups by Site

Regional Weather Roundup for Phoenix, AZ

To Select Another Site Choose from List

Select Site:  

000
ASUS45 KPSR 252310
RWRAZ

ARIZONA HOURLY REGIONAL WEATHER ROUNDUP
NATIONAL WEATHER SERVICE PHOENIX AZ
400 PM MST TUE JAN 25 2022

NOTE: FAIR INDICATES FEW OR NO CLOUDS BELOW 12,000 FEET WITH NO
SIGNIFICANT WEATHER AND/OR OBSTRUCTIONS TO VISIBILITY.

AZZ001>003-036-260000-
NORTHWEST ARIZONA

CITY           SKY/WX    TMP DP  RH WIND       PRES   REMARKS
BULLHEAD CITY  SUNNY     66  19  16 N23G35    29.98R
KINGMAN        SUNNY     52  17  25 N26G36    30.02R
$$

AZZ004>008-015-016-018-260000-
NORTH CENTRAL ARIZONA

CITY           SKY/WX    TMP DP  RH WIND       PRES   REMARKS
GRAND CANYON   CLOUDY    37  21  52 NE16      29.97R WCI  28
WILLIAMS       PTSUNNY   45   9  23 W17       29.95R
PRESCOTT       MOSUNNY   51  21  30 W14       29.93S
FLAGSTAFF      PTSUNNY   41  13  31 W10G22    29.93R
PAYSON         MOSUNNY   50  25  37 S7        29.96S
PAGE           CLOUDY    46  22  38 E6        29.99R
$$

AZZ009>014-017-260000-
NORTHEAST ARIZONA

CITY           SKY/WX    TMP DP  RH WIND       PRES   REMARKS
WINSLOW        CLOUDY    52  15  23 NW16      29.90R
SAINT JOHNS    MOSUNNY   53  14  21 SW21G28   29.86F
WINDOW ROCK    MOSUNNY   48  10  21 W10       29.89R
SHOW LOW       SUNNY     48  18  29 S18       29.93S
$$

AZZ540-542>544-546-548-260000-
GREATER PHOENIX AREA

CITY           SKY/WX    TMP DP  RH WIND       PRES   REMARKS
PHOENIX        MOSUNNY   69  25  19 SW8G18    29.89S
BUCKEYE        SUNNY     68  30  24 SW9       29.92S
LUKE AFB       SUNNY     67  28  23 S14       29.90R
DEER VALLEY    SUNNY     65  26  23 W8        29.91R
SCOTTSDALE     SUNNY     66  25  21 W9        29.92R
MESA-FALCON    SUNNY     67  26  21 SW12      29.90S
MESA-GATEWAY   SUNNY     66  25  20 SW13      29.92F
CHANDLER       MOSUNNY   70  27  19 SW9       29.91F
$$

AZZ539-553-260000-
SOUTHWEST MARICOPA COUNTY AND PINAL COUNTY

CITY           SKY/WX    TMP DP  RH WIND       PRES   REMARKS
CASA GRANDE    SUNNY     67  24  19 W8        29.93S
GILA BEND      MOSUNNY   69  23  17 SW8       29.90F
$$

AZZ503-504-507>509-260000-
SOUTHEAST ARIZONA

CITY           SKY/WX    TMP DP  RH WIND       PRES   REMARKS
TUCSON         SUNNY     69  19  15 NW12      29.93S
DAVIS-MONTHAN  SUNNY     67  20  17 NW10G18   29.91S
RYAN FIELD     SUNNY     68  18  14 W13G21    29.92R
NOGALES        SUNNY     63  18  17 W15G22    29.96S
SIERRA VISTA   SUNNY     62  17  17 W20       29.97R
SAFFORD        MOSUNNY   62  25  24 W10       29.90S
$$

AZZ532-260000-
SOUTHWEST ARIZONA

CITY           SKY/WX    TMP DP  RH WIND       PRES   REMARKS
YUMA           MOSUNNY   72  33  24 CALM      29.92S
$$

CAZ041-043-047-048-061-525>527-560>570-260000-
SOUTHERN CALIFORNIA

CITY           SKY/WX    TMP DP  RH WIND       PRES   REMARKS
DOWNTOWN L.A.  SUNNY     65  49  56 W7        29.94S
L.A. AIRPORT   SUNNY     61  51  70 W10       29.96S
SAN DIEGO      MOSUNNY   61  50  67 VRB7      29.98R
BURBANK        SUNNY     69  33  26 S3        29.93S
ONTARIO        SUNNY     68  35  29 W10       29.93S
RIVERSIDE      SUNNY     74  15  10 N14G23    29.91F
PALM SPRINGS   SUNNY     77  13   9 VRB5      29.93S
EL CENTRO NAS  MOSUNNY   72  35  25 CALM      29.94S
IMPERIAL       SUNNY     71  35  26 CALM      29.91F
BLYTHE         SUNNY     74  17  11 N20G25    29.93S
NEEDLES        SUNNY     67  12  12 N28G36    29.99R
$$

NVZ020-UTZ003-260000-
SOUTHERN NEVADA-UTAH

CITY           SKY/WX    TMP DP  RH WIND       PRES   REMARKS
LAS VEGAS      MOSUNNY   58  16  19 NE14      30.06R
SALT LAKE CITY MOSUNNY   38  26  62 W15       30.19R WCI  29
$$

NMZ009-TXZ055-260000-
NEW MEXICO-WEST TEXAS

CITY           SKY/WX    TMP DP  RH WIND       PRES   REMARKS
ALBUQUERQUE    MOSUNNY   53  12  19 E6        29.89F
EL PASO        MOSUNNY   63  23  21 SW10      29.92R
$$


........................KEY........................
SKY/WX - SKY CONDITION/WEATHER
TMP    - TEMPERATURE IN FAHRENHEIT
DP     - DEW POINT IN FAHRENHEIT
RH     - RELATIVE HUMIDITY IN PERCENT
WIND   - DIRECTION AND SPEED IN MILES PER HOUR (MPH)
VRB    - VARIABLE WIND DIRECTION
PRES   - MEAN SEA LEVEL PRESSURE IN INCHES OF MERCURY
         F - FALLING PRESSURE   R - RISING PRESSURE
         S - STEADY PRESSURE
VSB    - VISIBILITY IN MILES
HX     - HEAT INDEX IN FAHRENHEIT
WCI    - WIND CHILL INDEX IN FAHRENHEIT
TC     - TEMPERATURE IN CELSIUS WHICH IS ALSO KNOWN AS
         TEMPERATURE IN CENTIGRADE
AFB    - AIR FORCE BASE
         LUKE AFB IS LUKE AIR FORCE BASE
         DAVIS-MONTHAN IS DAVIS-MONTHAN AIR FORCE BASE
NAS    - NAVAL AIR STATION
         EL CENTRO NAS IS EL CENTRO NAVAL AIR STATION
N/A    - NOT AVAILABLE



 

View Past Reports for Phoenix, AZ.

Products Courtesy of NOAA-NWS
NWS Information Parsing Script by Ken True at Saratoga Weather - Script by SE Lincoln Weather.